Location: St. Louis
(38.6270°N, 90.1994°W)
Time: 04:08:04
(UTC-05:00)

RS-15 - Pass Details

Date: 29 January 2022
Orbit: 1881 x 2163 km, 64.8° (Epoch: 20 May)

Event Time Altitude Azimuth Distance (km) Brightness Sun altitude
Rises 19:04:09 0° 246° (WSW) 5,426 11.7 -20.6°
Reaches altitude 10° 19:07:51 10° 255° (WSW) 4,468 11.1 -21.3°
Maximum altitude 19:18:24 38° 320° (NW) 2,909 9.1 -23.3°
Drops below altitude 10° 19:29:30 10° 26° (NNE) 4,663 9.7 -25.5°
Enters shadow 19:32:19 - 32° (NNE) 5,374 10.0 -26.1°
